Weather History for KMHK - April, 2014

Change the Weather History Date:

Friday, April 4, 2014

  Actual Average Record
Temperature  
Mean Temperature 39 °F 50 °F  
Max Temperature 49 °F 64 °F 82 °F (2005)
Min Temperature 28 °F 37 °F 25 °F (2002)
Degree Days  
Heating Degree Days 26 15  
Month to date heating degree days 94 62  
Since 1 July heating degree days 5375 4898  
Cooling Degree Days 0 0  
Month to date cooling degree days 0 0  
Year to date cooling degree days 0 2  
Moisture  
Dew Point 29 °F    
Average Humidity 69    
Maximum Humidity 92    
Minimum Humidity 46    
Precipitation  
Precipitation 0.00 in 0.05 in 1.39 in (2012)
Month to date precipitation 0.52 0.20  
Year to date precipitation 2.27 4.12  
Sea Level Pressure  
Sea Level Pressure 30.09 in    
Wind  
Wind Speed 7 mph (NW)    
Max Wind Speed 16 mph    
Max Gust Speed 25 mph    
Visibility 10 miles    
Events Rain    
T = Trace of Precipitation, MM = Missing Value Source: NWS Daily Summary

Daily Weather History Graph

Daily Weather History Graph

Search for Another Location

Airport or City:

Trip Planner

Search our weather history database for the weather conditions in past years. The results will help you decide how hot, cold, wet, or windy it might be!

Date:

Astronomy

Apr. 04, 2014 Rise Set
Actual Time 7:06 AM CDT 7:53 PM CDT
Civil Twilight 6:39 AM CDT 8:20 PM CDT
Nautical Twilight 6:07 AM CDT 8:52 PM CDT
Astronomical Twilight 5:34 AM CDT 9:25 PM CDT
Moon 10:25 AM CDT (4/4) 12:11 AM CDT (4/4)
Length of Visible Light 13h 41m
Length of Day
12h 46m
Waxing Crescent, 25% of the Moon is Illuminated
Apr 4
Waxing Crescent
Apr 7
First Quarter
Apr 15
Full
Apr 22
Last Quarter
Apr 29
New

Hourly Weather History & Observations

Time (CDT) Temp. Windchill Dew Point Humidity Pressure Visibility Wind Dir Wind Speed Gust Speed Precip Events Conditions
12:15 AM 37.0 °F 29.3 °F 33.1 °F 86% 29.90 in 10.0 mi NW 11.5 mph 23.0 mph 0.00 in Rain Light Rain
12:52 AM 37.9 °F 29.2 °F 33.1 °F 83% 29.94 in 10.0 mi NW 15.0 mph 25.3 mph 0.00 in Rain Light Rain
1:49 AM 37.4 °F 30.3 °F 33.8 °F 87% 29.94 in 10.0 mi NW 10.4 mph 18.4 mph 0.00 in Rain Light Rain
1:52 AM 37.9 °F 30.9 °F 33.1 °F 83% 29.96 in 10.0 mi NNW 10.4 mph 18.4 mph 0.00 in Rain Light Rain
2:12 AM 37.0 °F 31.6 °F 32.0 °F 82% 29.95 in 10.0 mi WNW 6.9 mph - 0.00 in Rain Light Rain
2:52 AM 37.0 °F 31.0 °F 32.0 °F 82% 29.98 in 10.0 mi WNW 8.1 mph - 0.00 in Rain Light Rain
3:44 AM 37.9 °F 31.5 °F 30.9 °F 76% 29.97 in 10.0 mi NW 9.2 mph 19.6 mph 0.00 in Rain Light Rain
3:52 AM 37.9 °F 30.5 °F 30.9 °F 76% 29.99 in 10.0 mi NW 11.5 mph 21.9 mph 0.00 in Rain Light Rain
4:52 AM 37.9 °F 32.7 °F 30.9 °F 76% 30.01 in 10.0 mi NW 6.9 mph - 0.00 in Rain Light Rain
5:52 AM 37.0 °F 31.6 °F 30.9 °F 79% 30.03 in 10.0 mi Variable 6.9 mph - 0.00 in Rain Light Rain
6:33 AM 35.1 °F 28.6 °F 28.9 °F 78% 30.03 in 10.0 mi NW 8.1 mph - 0.00 in Rain Light Rain
6:52 AM 35.1 °F 30.1 °F 28.9 °F 78% 30.06 in 10.0 mi Variable 5.8 mph - 0.00 in   Clear
7:52 AM 34.0 °F 27.2 °F 28.0 °F 79% 30.09 in 10.0 mi NNW 8.1 mph - N/A   Scattered Clouds
8:03 AM 35.1 °F 29.3 °F 28.0 °F 76% 30.07 in 10.0 mi NW 6.9 mph - N/A   Mostly Cloudy
8:38 AM 37.0 °F 32.4 °F 28.9 °F 73% 30.09 in 10.0 mi Variable 5.8 mph 16.1 mph N/A   Scattered Clouds
8:52 AM 37.9 °F 32.1 °F 28.9 °F 70% 30.12 in 10.0 mi NNW 8.1 mph 17.3 mph N/A   Partly Cloudy
9:14 AM 37.9 °F 32.1 °F 27.0 °F 65% 30.11 in 10.0 mi NNW 8.1 mph 25.3 mph N/A   Mostly Cloudy
9:22 AM 37.0 °F 28.5 °F 27.0 °F 67% 30.12 in 10.0 mi NNW 13.8 mph 25.3 mph N/A   Mostly Cloudy
9:52 AM 37.0 °F 29.8 °F 26.1 °F 65% 30.16 in 10.0 mi NNW 10.4 mph 24.2 mph N/A   Overcast
10:03 AM 37.0 °F 29.3 °F 26.1 °F 65% 30.14 in 10.0 mi NNW 11.5 mph 21.9 mph N/A   Overcast
10:52 AM 37.9 °F 30.5 °F 26.1 °F 62% 30.18 in 10.0 mi North 11.5 mph 19.6 mph N/A   Overcast
11:52 AM 39.9 °F 32.9 °F 27.0 °F 60% 30.19 in 10.0 mi NNW 11.5 mph 19.6 mph N/A   Overcast
12:52 PM 42.1 °F 36.1 °F 27.0 °F 55% 30.18 in 10.0 mi NW 10.4 mph 18.4 mph N/A   Overcast
1:52 PM 44.1 °F 38.6 °F 28.0 °F 53% 30.17 in 10.0 mi WNW 10.4 mph 17.3 mph N/A   Overcast
2:52 PM 46.0 °F 41.0 °F 28.0 °F 50% 30.16 in 10.0 mi North 10.4 mph 17.3 mph N/A   Scattered Clouds
3:52 PM 46.9 °F - 28.9 °F 50% 30.16 in 10.0 mi WNW 10.4 mph - N/A   Partly Cloudy
4:52 PM 48.0 °F - 28.9 °F 48% 30.14 in 10.0 mi WNW 9.2 mph - N/A   Clear
5:52 PM 48.0 °F - 28.0 °F 46% 30.14 in 10.0 mi Variable 4.6 mph - N/A   Clear
6:52 PM 46.9 °F - 28.0 °F 48% 30.14 in 10.0 mi Variable 3.5 mph - N/A   Clear
7:52 PM 44.1 °F 42.5 °F 28.0 °F 53% 30.16 in 10.0 mi NNW 3.5 mph - N/A   Clear
8:52 PM 35.1 °F - 28.0 °F 76% 30.17 in 10.0 mi Calm Calm - N/A   Clear
9:52 PM 33.1 °F - 27.0 °F 78% 30.19 in 10.0 mi Calm Calm - N/A   Clear
10:52 PM 28.9 °F 25.2 °F 27.0 °F 92% 30.20 in 8.0 mi NNE 3.5 mph - N/A   Clear
11:52 PM 30.0 °F - 28.0 °F 92% 30.20 in 8.0 mi Calm Calm - N/A   Clear